CW4490 Weather Reports


time (UTC)temp
F
wind
direction
speed
knots
gust
knots
rain 1hr
in
rain 24hr
in
rain mn
in
humidity
%
barometer
mb
20260906234910 81 142 0.0 0.9 0.02 0.27 0.27 88 1006.5
20260906234414 80 360 0.0 0.9 0.04 0.27 0.27 87 1006.5
20260906233936 80 157 0.0 0.9 0.13 0.27 0.27 87 1006.5
20260906233400 80 360 0.0 0.0 0.16 0.27 0.27 87 1006.5
20260906232905 80 167 0.0 0.0 0.21 0.27 0.27 86 1006.5
20260906232410 79 360 0.0 1.7 0.23 0.27 0.27 85 1006.6
20260906231917 79 142 0.0 1.7 0.27 0.27 0.27 85 1006.6
20260906231358 79 140 0.0 1.7 0.27 0.27 0.27 84 1006.6
20260906230902 79 140 0.0 2.6 0.27 0.27 0.27 83 1006.8
20260906230357 79 155 0.9 2.6 0.27 0.27 0.27 82 1006.8
20260906225839 79 211 1.7 3.5 0.27 0.27 0.27 79 1006.8
20260906225346 80 360 0.9 7.8 0.26 0.26 0.26 76 1007.1
20260906224850 81 215 4.3 7.8 0.25 0.25 0.25 75 1007.1
20260906224459 82 150 2.6 7.8 0.23 0.23 0.23 76 1007.1
20260906223941 84 360 0.9 6.1 0.14 0.14 0.14 74 1006.8
20260906223505 86 140 1.7 8.7 0.11 0.11 0.11 71 1006.9
20260906222947 90 108 3.5 8.7 0.06 0.06 0.06 62 1007.0
20260906222433 95 132 0.9 5.2 0.04 0.04 0.04 55 1006.6
20260906221938 96 186 1.7 5.2 0.00 0.00 0.00 48 1006.6
20260906221444 96 204 1.7 9.6 0.00 0.00 0.00 46 1006.6
20260906220927 96 224 3.5 9.6 0.00 0.00 0.00 45 1006.7
20260906220424 97 252 1.7 7.8 0.00 0.00 0.00 45 1006.7
20260906215927 97 204 1.7 5.2 0.00 0.00 0.00 45 1006.7
20260906215432 96 264 1.7 5.2 0.00 0.00 0.00 46 1007.0
20260906214940 96 234 3.5 6.1 0.00 0.00 0.00 45 1007.0
20260906214425 96 245 2.6 6.1 0.00 0.00 0.00 45 1007.0
20260906213909 95 220 2.6 6.1 0.00 0.00 0.00 45 1007.1
20260906213416 95 176 2.6 6.1 0.00 0.00 0.00 46 1007.1
20260906212857 95 248 2.6 6.1 0.00 0.00 0.00 46 1007.1
20260906212404 95 109 2.6 6.1 0.00 0.00 0.00 46 1007.2
20260906211931 94 238 3.5 5.2 0.00 0.00 0.00 47 1007.2
20260906211354 93 175 2.6 5.2 0.00 0.00 0.00 48 1007.2
20260906210858 93 134 2.6 7.8 0.00 0.00 0.00 48 1007.2
20260906210354 94 145 1.7 7.8 0.00 0.00 0.00 48 1007.3
20260906205837 94 148 1.7 4.3 0.00 0.00 0.00 46 1007.3
20260906205341 94 305 1.7 4.3 0.00 0.00 0.00 46 1007.7
20260906204846 93 202 2.6 4.3 0.00 0.00 0.00 48 1007.7
20260906204454 93 149 1.7 4.3 0.00 0.00 0.00 49 1007.7
20260906203956 93 175 2.6 4.3 0.00 0.00 0.00 48 1007.7
20260906203522 93 209 0.9 3.5 0.00 0.00 0.00 47 1007.7
20260906202943 93 144 0.9 5.2 0.00 0.00 0.00 48 1007.7
20260906202445 93 134 1.7 5.2 0.00 0.00 0.00 48 1007.8
20260906201932 93 204 2.6 4.3 0.00 0.00 0.00 48 1007.8
20260906201436 93 105 1.7 6.1 0.00 0.00 0.00 48 1007.8
20260906200922 93 126 2.6 6.1 0.00 0.00 0.00 48 1008.0
20260906200439 93 77 2.6 4.3 0.00 0.00 0.00 48 1008.0
20260906195923 93 131 1.7 5.2 0.00 0.00 0.00 47 1008.0
20260906195425 94 163 0.9 5.2 0.00 0.00 0.00 47 1008.2
20260906194910 94 159 1.7 5.2 0.00 0.00 0.00 46 1008.2
20260906194414 95 110 3.5 8.7 0.00 0.00 0.00 45 1008.2
20260906193918 96 128 2.6 8.7 0.00 0.00 0.00 44 1008.3
20260906193403 96 203 2.6 8.7 0.00 0.00 0.00 45 1008.3
20260906192907 95 194 3.5 8.7 0.00 0.00 0.00 45 1008.2
20260906192433 95 113 2.6 6.1 0.00 0.00 0.00 46 1008.4
20260906191858 95 336 3.5 6.1 0.00 0.00 0.00 44 1008.4
20260906191403 94 238 0.9 7.0 0.00 0.00 0.00 45 1008.4
20260906190845 94 300 3.5 7.0 0.00 0.00 0.00 44 1008.7
20260906190342 94 16 1.7 5.2 0.00 0.00 0.00 44 1008.7
20260906185849 94 119 3.5 7.8 0.00 0.00 0.00 44 1008.7
20260906185351 94 298 1.7 7.8 0.00 0.00 0.00 46 1008.8
20260906184837 94 219 1.7 5.2 0.00 0.00 0.00 46 1008.8
20260906184449 93 227 2.6 7.0 0.00 0.00 0.00 45 1008.8
20260906183957 93 265 3.5 7.0 0.00 0.00 0.00 43 1008.8
20260906183501 93 232 2.6 8.7 0.00 0.00 0.00 45 1008.8
20260906182948 93 185 3.5 8.7 0.00 0.00 0.00 46 1008.8
20260906182450 93 239 2.6 5.2 0.00 0.00 0.00 47 1009.2
20260906181934 93 240 2.6 5.2 0.00 0.00 0.00 48 1009.2
20260906181440 92 136 2.6 4.3 0.00 0.00 0.00 50 1009.1
20260906180946 91 321 0.9 5.2 0.00 0.00 0.00 51 1009.5
20260906180421 91 254 2.6 6.1 0.00 0.00 0.00 50 1009.5
20260906175948 91 265 2.6 6.1 0.00 0.00 0.00 51 1009.5
20260906175432 91 119 1.7 6.1 0.00 0.00 0.00 51 1009.8
20260906174917 91 205 0.0 6.1 0.00 0.00 0.00 51 1009.8
20260906174420 90 253 0.9 2.6 0.00 0.00 0.00 52 1009.8
20260906173908 90 259 1.7 6.1 0.00 0.00 0.00 52 1010.1
20260906173413 90 190 2.6 6.1 0.00 0.00 0.00 52 1010.1
20260906172916 90 228 3.5 6.1 0.00 0.00 0.00 53 1010.1
20260906172401 89 294 1.7 4.3 0.00 0.00 0.00 55 1010.4
20260906171906 89 192 2.6 5.2 0.00 0.00 0.00 56 1010.4
20260906171350 88 142 1.7 6.1 0.00 0.00 0.00 56 1010.4
20260906170855 88 141 2.6 6.1 0.00 0.00 0.00 56 1010.6
20260906170353 89 232 1.7 5.2 0.00 0.00 0.00 57 1010.6
20260906165839 89 150 1.7 5.2 0.00 0.00 0.00 57 1010.6
20260906165343 88 73 0.9 5.2 0.00 0.00 0.00 57 1010.6
20260906164849 88 131 2.6 4.3 0.00 0.00 0.00 59 1010.6
20260906164354 87 77 2.6 4.3 0.00 0.00 0.00 58 1010.6
20260906163957 86 132 0.9 3.5 0.00 0.00 0.00 57 1010.8
20260906163442 86 62 0.9 3.5 0.00 0.00 0.00 64 1010.7
20260906162949 85 229 1.7 3.5 0.00 0.00 0.00 66 1010.7
20260906162450 85 360 0.9 2.6 0.00 0.00 0.00 68 1010.8
20260906161933 85 360 1.7 2.6 0.00 0.00 0.00 68 1010.8
20260906161439 84 217 0.0 0.9 0.00 0.00 0.00 70 1010.8
20260906160925 84 222 0.0 3.5 0.00 0.00 0.00 70 1010.5
20260906160422 84 223 0.9 3.5 0.00 0.00 0.00 70 1010.5
20260906155943 84 236 0.9 2.6 0.00 0.00 0.00 72 1010.5
20260906155446 84 281 0.9 2.6 0.00 0.00 0.00 72 1010.4
20260906154932 84 166 0.9 3.5 0.00 0.00 0.00 72 1010.3
20260906154414 83 225 1.7 3.5 0.00 0.00 0.00 72 1010.3
20260906153919 83 161 0.0 2.6 0.00 0.00 0.00 72 1010.3
20260906153407 83 200 0.9 2.6 0.00 0.00 0.00 73 1010.3
20260906152911 82 252 0.9 2.6 0.00 0.00 0.00 73 1010.3
20260906152431 82 360 0.9 2.6 0.00 0.00 0.00 73 1010.2
20260906151900 82 235 0.9 2.6 0.00 0.00 0.00 74 1010.2
20260906151405 82 206 1.7 2.6 0.00 0.00 0.00 76 1010.2
20260906150849 81 157 0.0 2.6 0.00 0.00 0.00 77 1009.8
20260906150345 81 230 0.9 2.6 0.00 0.00 0.00 78 1009.8
20260906145848 81 155 0.0 1.7 0.00 0.00 0.00 79 1009.9
20260906145355 81 360 0.9 2.6 0.00 0.00 0.00 79 1009.9
20260906144840 80 212 0.9 2.6 0.00 0.00 0.00 80 1009.9
20260906144343 80 181 0.0 0.0 0.00 0.00 0.00 79 1009.9
20260906143948 80 167 0.0 0.0 0.00 0.00 0.00 79 1009.8
20260906143451 80 151 0.0 2.6 0.00 0.00 0.00 79 1009.8
20260906142939 80 146 0.9 2.6 0.00 0.00 0.00 79 1009.8
20260906142443 80 192 0.9 1.7 0.00 0.00 0.00 79 1009.6
20260906141950 80 348 0.0 0.0 0.00 0.00 0.00 78 1009.6
20260906141434 80 348 0.0 0.0 0.00 0.00 0.00 79 1009.6
20260906140939 79 348 0.0 0.0 0.00 0.00 0.00 79 1009.5
20260906140438 79 348 0.0 0.0 0.00 0.00 0.00 79 1009.5
20260906135942 79 348 0.0 0.0 0.00 0.00 0.00 79 1009.6
20260906135429 79 351 0.0 0.0 0.00 0.00 0.00 79 1009.5
20260906134915 78 9 0.0 0.0 0.00 0.00 0.00 79 1009.5
20260906134419 78 9 0.0 0.0 0.00 0.00 0.00 79 1009.5
20260906133906 78 248 0.0 0.0 0.00 0.00 0.00 80 1009.4
20260906133435 78 248 0.0 0.0 0.00 0.00 0.00 80 1009.4
20260906132916 78 248 0.0 0.0 0.00 0.00 0.00 80 1009.4
20260906132423 77 248 0.0 0.0 0.00 0.00 0.00 81 1009.2
20260906131907 77 248 0.0 0.0 0.00 0.00 0.00 81 1009.2
20260906131351 77 248 0.0 0.0 0.00 0.00 0.00 82 1009.2
20260906130900 77 248 0.0 0.0 0.00 0.00 0.00 82 1009.0
20260906130359 76 248 0.0 0.0 0.00 0.00 0.00 82 1009.0
20260906125843 76 247 0.0 0.0 0.00 0.00 0.00 82 1009.1
20260906125350 76 247 0.0 0.0 0.00 0.00 0.00 82 1008.8
20260906124855 76 247 0.0 0.0 0.00 0.00 0.00 82 1008.8
20260906124339 76 247 0.0 0.0 0.00 0.00 0.00 82 1008.8
20260906123953 76 246 0.0 0.0 0.00 0.00 0.00 82 1008.7
20260906123457 76 246 0.0 0.0 0.00 0.00 0.00 82 1008.7
20260906122943 76 246 0.0 0.0 0.00 0.00 0.00 82 1008.7
20260906122447 76 246 0.0 0.0 0.00 0.00 0.00 82 1008.3
20260906121934 76 246 0.0 0.0 0.00 0.00 0.00 81 1008.3
20260906121457 76 246 0.0 0.0 0.00 0.00 0.00 81 1008.3
20260906120940 76 248 0.0 0.0 0.00 0.00 0.00 81 1008.1
20260906120437 76 246 0.0 0.0 0.00 0.00 0.00 80 1008.1
20260906115920 76 246 0.0 0.0 0.00 0.00 0.00 80 1008.2
20260906115424 76 246 0.0 0.0 0.00 0.00 0.00 80 1007.9
20260906114953 77 246 0.0 0.0 0.00 0.00 0.00 80 1007.9
20260906114436 77 246 0.0 0.0 0.00 0.00 0.00 80 1007.9
20260906113921 77 246 0.0 0.0 0.00 0.00 0.00 79 1007.6
20260906113406 77 246 0.0 0.0 0.00 0.00 0.00 79 1007.6
20260906112910 77 246 0.0 0.0 0.00 0.00 0.00 79 1007.6
20260906112417 77 246 0.0 0.0 0.00 0.00 0.00 79 1007.6
20260906111901 77 246 0.0 0.0 0.00 0.00 0.00 79 1007.6
20260906111404 77 246 0.0 0.0 0.00 0.00 0.00 79 1007.6
20260906110907 77 246 0.0 0.0 0.00 0.00 0.00 79 1007.5
20260906110346 77 246 0.0 0.0 0.00 0.00 0.00 79 1007.5
20260906105850 77 246 0.0 0.0 0.00 0.00 0.00 79 1007.6
20260906105357 77 246 0.0 0.0 0.00 0.00 0.00 79 1007.5
20260906104845 77 246 0.0 0.0 0.00 0.00 0.00 78 1007.5
20260906104349 78 246 0.0 0.0 0.00 0.00 0.00 78 1007.5
20260906103957 78 246 0.0 0.0 0.00 0.00 0.00 78 1007.5
20260906103442 78 246 0.0 0.0 0.00 0.00 0.00 78 1007.5
20260906103008 78 246 0.0 0.0 0.00 0.00 0.00 78 1007.5
20260906102511 78 246 0.0 0.0 0.00 0.00 0.00 77 1007.2
20260906101935 78 246 0.0 0.0 0.00 0.00 0.00 77 1007.2
20260906101505 78 246 0.0 0.0 0.00 0.00 0.00 77 1007.2
20260906100945 78 246 0.0 0.0 0.00 0.00 0.00 77 1007.2
20260906100425 78 246 0.0 0.0 0.00 0.00 0.00 77 1007.2
20260906095928 78 246 0.0 0.0 0.00 0.00 0.00 77 1007.2
20260906095454 78 246 0.0 0.0 0.00 0.00 0.00 77 1007.4
20260906094921 78 246 0.0 0.0 0.00 0.00 0.00 77 1007.4
20260906094425 78 245 0.0 0.0 0.00 0.00 0.00 76 1007.4
20260906093909 79 245 0.0 0.0 0.00 0.00 0.00 76 1007.4
20260906093414 79 245 0.0 0.0 0.00 0.00 0.00 76 1007.4
20260906092920 79 245 0.0 0.0 0.00 0.00 0.00 75 1007.4
20260906092403 79 245 0.0 0.0 0.00 0.00 0.00 75 1007.3
20260906091909 79 245 0.0 0.0 0.00 0.00 0.00 75 1007.3
20260906091352 80 245 0.0 0.0 0.00 0.00 0.00 75 1007.3
20260906090857 80 245 0.0 0.0 0.00 0.00 0.00 75 1007.4
20260906090415 80 245 0.0 0.0 0.00 0.00 0.00 74 1007.4
20260906085857 80 245 0.0 0.0 0.00 0.00 0.00 74 1007.4
20260906085339 80 245 0.0 0.0 0.00 0.00 0.00 74 1007.2
20260906084842 80 245 0.0 0.0 0.00 0.00 0.00 74 1007.2
20260906084346 81 173 0.0 0.0 0.00 0.00 0.00 74 1007.2
20260906083852 81 173 0.0 0.0 0.00 0.00 0.00 73 1007.3
20260906083539 81 173 0.0 0.0 0.00 0.00 0.00 73 1007.3
20260906083025 81 173 0.0 0.0 0.00 0.00 0.00 73 1007.3
20260906082506 81 186 0.0 2.6 0.00 0.00 0.00 73 1007.2
20260906082010 81 186 0.9 2.6 0.00 0.00 0.00 72 1007.2
20260906081456 82 168 0.9 2.6 0.00 0.00 0.00 72 1007.2
20260906081020 82 360 0.9 3.5 0.00 0.00 0.00 72 1007.5
20260906080456 82 280 0.0 3.5 0.00 0.00 0.00 71 1007.5
20260906080007 82 360 0.0 2.6 0.00 0.00 0.00 71 1007.5
20260906075448 82 360 0.0 2.6 0.00 0.00 0.00 71 1007.7
20260906075015 82 360 0.9 2.6 0.00 0.00 0.00 71 1007.7
20260906074443 82 198 0.0 3.5 0.00 0.00 0.00 71 1007.7
20260906073948 83 161 1.7 3.5 0.00 0.00 0.00 70 1007.7
20260906073432 83 238 0.9 3.5 0.00 0.00 0.00 71 1007.7
20260906072938 83 165 1.7 3.5 0.00 0.00 0.00 71 1007.7
20260906072441 83 163 0.9 4.3 0.00 0.00 0.00 71 1008.0
20260906071927 83 148 0.9 4.3 0.00 0.00 0.00 71 1008.0
20260906071434 83 188 0.9 2.6 0.00 0.00 0.00 71 1008.0
20260906070936 83 360 0.0 5.2 0.00 0.00 0.00 71 1008.2
20260906070412 83 288 1.7 5.2 0.00 0.00 0.00 70 1008.2
20260906065920 83 360 0.9 4.3 0.00 0.00 0.00 70 1008.2
20260906065404 83 164 0.9 3.5 0.00 0.00 0.00 70 1008.2
20260906064930 83 159 0.9 3.5 0.00 0.00 0.00 70 1008.2
20260906064433 83 207 0.9 3.5 0.00 0.00 0.00 70 1008.2
20260906063915 84 175 1.7 4.3 0.00 0.00 0.00 69 1008.2
20260906063358 84 182 1.7 4.3 0.00 0.00 0.00 69 1008.2
20260906062902 84 155 0.9 2.6 0.00 0.00 0.00 69 1008.2
20260906062349 84 212 0.9 2.6 0.00 0.00 0.00 69 1008.3
20260906061856 84 221 0.9 7.0 0.00 0.00 0.00 69 1008.3
20260906061338 84 263 1.7 7.0 0.00 0.00 0.00 69 1008.3
20260906060842 84 163 1.7 4.3 0.00 0.00 0.00 69 1008.5
20260906060339 84 213 1.7 4.3 0.00 0.00 0.00 69 1008.5
20260906055927 84 189 1.7 4.3 0.00 0.00 0.00 69 1008.5
20260906055453 84 180 1.7 5.2 0.00 0.00 0.00 69 1008.3
20260906054938 84 159 1.7 5.2 0.00 0.00 0.00 68 1008.3
20260906054441 84 173 0.9 4.3 0.00 0.00 0.00 68 1008.3
20260906053923 84 169 0.9 2.6 0.00 0.00 0.00 68 1008.3
20260906053409 85 188 1.7 5.2 0.00 0.00 0.00 67 1008.3
20260906052937 85 178 2.6 6.1 0.00 0.00 0.00 67 1008.3
20260906052358 85 173 1.7 8.7 0.00 0.00 0.00 67 1008.6
20260906051905 85 360 1.7 6.1 0.00 0.00 0.00 67 1008.6
20260906051409 85 360 2.6 6.1 0.00 0.00 0.00 67 1008.6
20260906050853 85 360 2.6 5.2 0.00 0.00 0.00 66 1008.8
20260906050413 85 360 2.6 9.6 0.00 0.00 0.00 66 1008.8
20260906045854 85 360 2.6 9.6 0.00 0.00 0.00 66 1008.7
20260906045337 85 360 1.7 8.7 0.00 0.00 0.00 65 1008.7
20260906044842 85 360 2.6 8.7 0.00 0.00 0.00 65 1008.7
20260906044348 85 360 3.5 4.3 0.00 0.00 0.00 64 1008.7
20260906043832 85 360 1.7 5.2 0.00 0.00 0.00 64 1008.7
20260906043446 85 236 2.6 5.2 0.00 0.00 0.00 63 1008.7
20260906042957 85 360 1.7 5.2 0.00 0.00 0.00 63 1008.7
20260906042441 85 360 1.7 5.2 0.00 0.00 0.00 63 1008.3
20260906042006 85 360 1.7 6.1 0.00 0.00 0.00 62 1008.4
20260906041452 86 192 0.9 6.1 0.00 0.00 0.00 62 1008.4
20260906040931 86 169 2.6 4.3 0.00 0.00 0.00 62 1008.7
20260906040449 86 360 0.0 2.6 0.00 0.00 0.00 61 1008.7
20260906035934 86 360 1.7 4.3 0.00 0.00 0.00 61 1008.7
20260906035418 86 360 1.7 4.3 0.00 0.00 0.00 61 1008.3
20260906034924 86 360 2.6 5.2 0.00 0.00 0.00 61 1008.3
20260906034428 87 360 2.6 5.2 0.00 0.00 0.00 60 1008.3
20260906033914 87 154 0.9 6.1 0.00 0.00 0.00 60 1008.3
20260906033420 87 142 0.9 6.1 0.00 0.00 0.00 59 1008.3
20260906032906 87 190 1.7 8.7 0.00 0.00 0.00 59 1008.3
20260906032410 87 103 0.9 8.7 0.00 0.00 0.00 58 1008.2
20260906031856 88 144 1.7 7.8 0.00 0.00 0.00 58 1008.2
20260906031358 88 360 2.6 7.8 0.00 0.00 0.00 58 1008.2
20260906030902 88 126 3.5 6.1 0.00 0.00 0.00 57 1007.9
20260906030401 88 292 2.6 8.7 0.00 0.00 0.00 57 1007.9
20260906025848 88 187 5.2 9.6 0.00 0.00 0.00 56 1007.9
20260906025352 89 185 4.3 9.6 0.00 0.00 0.00 56 1007.6
20260906024837 89 179 3.5 7.0 0.00 0.00 0.00 56 1007.6
20260906024340 89 178 1.7 6.1 0.00 0.00 0.00 56 1007.6
20260906023906 89 159 0.9 4.3 0.00 0.00 0.00 56 1007.2
20260906022943 89 111 0.9 6.1 0.00 0.00 0.00 55 1007.2
20260906022447 89 63 4.3 7.8 0.00 0.00 0.00 55 1006.6
20260906021933 89 123 4.3 7.8 0.00 0.00 0.00 55 1006.7
20260906021435 90 360 1.7 5.2 0.00 0.00 0.00 55 1006.7
20260906020944 90 123 1.7 10.4 0.00 0.00 0.00 55 1006.7
20260906020441 90 84 4.3 10.4 0.00 0.00 0.00 54 1006.7
20260906015926 90 173 3.5 9.6 0.00 0.00 0.00 54 1006.7
20260906015433 90 131 3.5 9.6 0.00 0.00 0.00 54 1006.5
20260906014919 91 140 3.5 9.6 0.00 0.00 0.00 53 1006.5
20260906014425 91 65 1.7 9.6 0.00 0.00 0.00 52 1006.5
20260906013911 91 118 3.5 9.6 0.00 0.00 0.00 52 1006.1
20260906013418 92 207 3.5 9.6 0.00 0.00 0.00 51 1006.1
20260906012941 92 125 4.3 8.7 0.00 0.00 0.00 49 1006.1
20260906012407 92 128 3.5 5.2 0.00 0.00 0.00 48 1006.0
20260906011913 92 140 1.7 9.6 0.00 0.00 0.00 48 1006.0
20260906011358 92 74 3.5 9.6 0.00 0.00 0.00 48 1006.0
20260906010906 93 119 0.9 8.7 0.00 0.00 0.00 47 1006.2
20260906010404 93 93 2.6 8.7 0.00 0.00 0.00 47 1006.2
20260906005847 93 76 2.6 7.8 0.00 0.00 0.00 47 1006.0
20260906005353 93 122 3.5 5.2 0.00 0.00 0.00 45 1006.0
20260906004901 93 165 0.9 2.6 0.00 0.00 0.00 43 1006.0
20260906004344 94 111 0.9 5.2 0.00 0.00 0.00 42 1006.0
20260906003848 94 115 0.9 5.2 0.00 0.00 0.00 42 1005.9
20260906003418 95 115 2.6 6.1 0.00 0.00 0.00 42 1005.9
20260906003008 95 115 2.6 6.1 0.00 0.00 0.00 42 1006.0
20260906002454 95 117 2.6 4.3 0.00 0.00 0.00 41 1005.9
20260906001935 96 142 1.7 4.3 0.00 0.00 0.00 41 1005.9
20260906001442 96 90 2.6 5.2 0.00 0.00 0.00 40 1005.9
20260906000947 96 96 1.7 5.2 0.00 0.00 0.00 40 1005.8
20260906000442 96 74 1.7 2.6 0.00 0.00 0.00 39 1005.8
20260905235926 96 144 1.7 4.3 0.00 0.00 0.00 39 1005.8
20260905235429 96 127 0.9 4.3 0.00 0.00 0.00 39 1005.6